SM6PGP-2 Weather Reports


Display with metric or nautical units.
time (UTC)temp
F
wind
direction
speed
MPH
gust
MPH
rain 1hr
in
rain 24hr
in
rain mn
in
humidity
%
barometer
mb
20191117031014 47 306 16.0 28.0 0.00 0.00 0.09 96 1003.7
20191117030508 47 297 20.0 30.0 0.00 0.00 0.09 92 1003.6
20191117030004 47 292 12.0 23.0 0.00 0.00 0.09 96 1003.4
20191117025457 47 324 14.0 22.0 0.00 0.00 0.09 95 1003.4
20191117024952 47 333 13.0 23.0 0.00 0.00 0.08 95 1003.3
20191117024448 47 333 15.0 17.0 0.00 0.00 0.08 94 1003.2
20191117023942 47 346 19.0 21.0 0.00 0.00 0.08 96 1003.2
20191117023437 47 319 9.0 19.0 0.00 0.00 0.08 96 1003.1
20191117022932 47 346 9.0 26.0 0.00 0.00 0.08 94 1003.0
20191117022426 47 328 21.0 21.0 0.00 0.00 0.08 96 1002.8
20191117021922 47 0 22.0 23.0 0.00 0.00 0.08 94 1002.6
20191117021416 47 0 10.0 24.0 0.00 0.00 0.08 95 1002.6
20191117020911 47 292 13.0 22.0 0.00 0.00 0.08 92 1002.5
20191117020406 47 288 16.0 28.0 0.00 0.00 0.08 95 1002.4
20191117015900 47 292 17.0 24.0 0.00 0.00 0.08 94 1002.3
20191117015356 47 279 11.0 17.0 0.00 0.00 0.08 96 1002.3
20191117015103 47 292 17.0 29.0 0.00 0.00 0.08 96 1002.1
20191117014620 47 306 17.0 31.0 0.00 0.00 0.08 94 1002.0
20191117013849 47 0 22.0 30.0 0.00 0.00 0.08 94 1001.9
20191117013334 47 301 13.0 25.0 0.00 0.00 0.08 95 1001.8
20191117012830 47 333 11.0 27.0 0.00 0.00 0.08 95 1001.6
20191117012324 46 292 17.0 20.0 0.00 0.00 0.08 96 1001.6
20191117011819 46 346 17.0 21.0 0.00 0.00 0.08 96 1001.5
20191117011314 46 0 14.0 19.0 0.00 0.00 0.08 96 1001.3
20191117010808 45 337 6.0 9.0 0.00 0.00 0.07 94 1001.3
20191117010304 45 90 1.0 2.0 0.00 0.00 0.07 94 1001.0
20191117005758 45 90 2.0 3.0 0.00 0.00 0.07 93 1001.1
20191117005253 45 90 1.0 2.0 0.00 0.00 0.06 94 1000.9
20191117004748 45 90 4.0 5.0 0.00 0.00 0.06 93 1000.9
20191117004242 45 90 5.0 5.0 0.00 0.00 0.06 97 1000.9
20191117003738 45 90 3.0 4.0 0.00 0.00 0.06 93 1000.8
20191117003232 45 90 3.0 5.0 0.00 0.00 0.06 93 1000.8
20191117002727 45 90 2.0 12.0 0.00 0.00 0.06 97 1000.8
20191117002222 45 90 0.0 6.0 0.00 0.00 0.06 94 1000.8
20191117001717 45 85 4.0 4.0 0.00 0.00 0.06 94 1000.6
20191117001212 45 90 2.0 4.0 0.00 0.00 0.06 94 1000.5
20191117000706 45 90 3.0 5.0 0.00 0.00 0.06 95 1000.5
20191117000201 45 90 1.0 5.0 0.00 0.00 0.06 93 1000.5
20191116235656 45 135 5.0 6.0 0.00 0.00 0.06 93 1000.5
20191116235150 45 135 5.0 5.0 0.00 0.00 0.06 93 1000.3
20191116234646 46 90 4.0 6.0 0.00 0.00 0.06 94 1000.4
20191116234140 46 180 3.0 5.0 0.00 0.00 0.06 93 1000.2
20191116233635 46 180 4.0 5.0 0.00 0.00 0.06 93 1000.4
20191116233130 46 180 1.0 7.0 0.00 0.00 0.06 94 1000.3
20191116232624 46 180 3.0 7.0 0.00 0.00 0.06 93 1000.3
20191116232120 46 135 4.0 6.0 0.00 0.00 0.06 93 1000.2
20191116231614 46 135 3.0 7.0 0.00 0.00 0.06 95 1000.3
20191116231109 46 180 4.0 4.0 0.00 0.00 0.06 94 1000.3
20191116230604 46 180 3.0 7.0 0.00 0.00 0.06 95 1000.2
20191116230058 46 180 5.0 6.0 0.00 0.00 0.06 93 1000.1
20191116225554 46 180 7.0 8.0 0.00 0.00 0.06 97 1000.2
20191116225048 46 135 7.0 10.0 0.00 0.00 0.06 94 1000.1
20191116224543 46 153 13.0 13.0 0.00 0.00 0.06 93 1000.1
20191116224038 46 135 13.0 15.0 0.00 0.00 0.06 95 1000.2
20191116223532 46 153 9.0 15.0 0.00 0.00 0.06 94 1000.1
20191116223028 46 144 11.0 14.0 0.00 0.00 0.06 95 1000.1
20191116222522 46 144 6.0 14.0 0.00 0.00 0.06 95 1000.0
20191116222017 46 180 9.0 16.0 0.00 0.00 0.06 96 1000.1
20191116221512 46 135 8.0 12.0 0.00 0.00 0.06 94 1000.0
20191116221006 46 144 8.0 12.0 0.00 0.00 0.06 96 1000.1
20191116220502 46 135 9.0 19.0 0.00 0.00 0.06 94 1000.0
20191116215956 46 144 10.0 16.0 0.00 0.00 0.06 96 1000.0
20191116215451 46 180 6.0 9.0 0.00 0.00 0.06 94 1000.0
20191116214946 46 146 10.0 18.0 0.00 0.00 0.06 96 1000.0
20191116214440 46 180 15.0 23.0 0.00 0.00 0.06 94 1000.0
20191116213936 47 144 15.0 16.0 0.00 0.00 0.06 95 999.8
20191116213430 47 146 8.0 13.0 0.00 0.00 0.06 96 999.8
20191116212925 47 135 6.0 18.0 0.00 0.00 0.06 94 999.9
20191116212420 47 22 12.0 14.0 0.00 0.00 0.06 96 999.7
20191116211914 47 4 6.0 15.0 0.00 0.00 0.06 95 999.8
20191116211410 47 22 11.0 15.0 0.00 0.00 0.06 94 999.8
20191116210904 47 22 10.0 13.0 0.00 0.00 0.06 96 999.8
20191116210359 47 22 11.0 18.0 0.00 0.00 0.06 94 999.8
20191116205854 47 180 12.0 15.0 0.00 0.00 0.06 96 999.8
20191116205349 47 180 14.0 14.0 0.00 0.00 0.06 95 999.6
20191116204844 47 180 9.0 18.0 0.00 0.00 0.06 95 999.6
20191116204338 47 180 11.0 20.0 0.00 0.00 0.06 96 999.5
20191116203833 47 180 10.0 15.0 0.00 0.00 0.06 94 999.5
20191116203328 47 180 11.0 19.0 0.00 0.00 0.06 100 999.6
20191116202822 47 22 10.0 13.0 0.00 0.00 0.06 96 999.5
20191116202318 47 180 13.0 16.0 0.00 0.00 0.06 95 999.4
20191116201812 47 22 12.0 13.0 0.00 0.00 0.06 90 999.5
20191116201307 47 22 13.0 16.0 0.00 0.00 0.06 97 999.4
20191116200802 47 146 10.0 19.0 0.00 0.00 0.06 95 999.4
20191116200256 47 22 14.0 14.0 0.00 0.00 0.06 96 999.4
20191116195752 47 180 8.0 9.0 0.00 0.00 0.05 96 999.5
20191116195246 47 180 6.0 12.0 0.00 0.00 0.05 94 999.6
20191116194741 47 22 6.0 18.0 0.00 0.00 0.05 95 999.5
20191116194236 48 22 8.0 12.0 0.00 0.00 0.05 95 999.4
20191116193730 47 22 8.0 13.0 0.00 0.00 0.05 96 999.5
20191116193226 47 180 14.0 14.0 0.00 0.00 0.04 95 999.5
20191116192720 47 180 8.0 16.0 0.00 0.00 0.04 95 999.5
20191116192215 47 162 9.0 15.0 0.00 0.00 0.04 96 999.5
20191116191710 47 180 15.0 15.0 0.00 0.00 0.04 95 999.4
20191116191204 47 135 10.0 11.0 0.00 0.00 0.04 96 999.5
20191116190700 47 135 5.0 9.0 0.00 0.00 0.04 94 999.5
20191116190154 47 135 12.0 12.0 0.00 0.00 0.04 95 999.5
20191116185649 47 135 3.0 5.0 0.00 0.00 0.04 95 999.4
20191116185144 47 135 2.0 4.0 0.00 0.00 0.03 96 999.5
20191116184638 47 135 5.0 10.0 0.00 0.00 0.03 96 999.6
20191116184134 47 135 6.0 7.0 0.00 0.00 0.03 96 999.5
20191116183628 47 135 7.0 9.0 0.00 0.00 0.03 95 999.6
20191116183123 47 90 2.0 5.0 0.00 0.00 0.02 94 999.6
20191116182618 47 90 4.0 9.0 0.00 0.00 0.02 94 999.5
20191116182112 47 90 5.0 10.0 0.00 0.00 0.02 94 999.6
20191116181608 47 90 4.0 8.0 0.00 0.00 0.02 96 999.7
20191116181102 47 337 4.0 6.0 0.00 0.00 0.02 95 999.5
20191116180557 47 90 3.0 5.0 0.00 0.00 0.02 96 999.6
20191116180052 47 90 4.0 7.0 0.00 0.00 0.02 94 999.5
20191116175546 47 90 3.0 5.0 0.00 0.00 0.02 95 999.7
20191116175042 47 85 4.0 7.0 0.00 0.00 0.02 94 999.7
20191116174536 47 90 6.0 6.0 0.00 0.00 0.02 94 999.7
20191116174031 47 112 5.0 7.0 0.00 0.00 0.02 94 999.6
20191116173526 47 90 7.0 9.0 0.00 0.00 0.02 94 999.8
20191116173020 47 135 2.0 5.0 0.00 0.00 0.02 97 999.8
20191116172516 47 135 2.0 6.0 0.00 0.00 0.02 95 999.8
20191116172010 47 90 5.0 9.0 0.00 0.00 0.01 96 999.8
20191116171505 47 346 2.0 5.0 0.00 0.00 0.01 95 1000.0
20191116171000 46 333 2.0 7.0 0.00 0.00 0.01 93 999.8
20191116170454 46 337 5.0 5.0 0.00 0.00 0.01 94 999.9
20191116165950 46 90 5.0 9.0 0.00 0.00 0.01 93 999.9
20191116165444 46 99 5.0 9.0 0.00 0.00 0.00 93 999.9
20191116164939 46 337 5.0 7.0 0.00 0.00 0.00 93 1000.0
20191116164434 46 351 6.0 7.0 0.00 0.00 0.00 96 999.9
20191116163929 46 337 5.0 8.0 0.00 0.00 0.00 94 999.9
20191116163424 46 337 4.0 7.0 0.00 0.00 0.00 94 1000.0
20191116162918 46 337 3.0 9.0 0.00 0.00 0.00 93 1000.1
20191116162413 46 337 5.0 7.0 0.00 0.00 0.00 95 1000.2
20191116161908 46 85 2.0 6.0 0.00 0.00 0.00 93 1000.2
20191116161402 46 337 3.0 6.0 0.00 0.00 0.17 93 1000.4
20191116160858 46 337 4.0 4.0 0.00 0.00 0.16 94 1000.3
20191116160352 46 225 4.0 6.0 0.00 0.00 0.16 94 1000.3
20191116155847 46 117 7.0 7.0 0.00 0.00 0.16 95 1000.6
20191116154836 46 90 3.0 6.0 0.00 0.00 0.16 93 1000.6
20191116153821 46 90 6.0 6.0 0.00 0.00 0.16 92 1000.5
20191116153316 46 90 2.0 7.0 0.00 0.00 0.16 94 1000.6
20191116152811 46 90 2.0 4.0 0.00 0.00 0.16 94 1000.8
20191116152306 46 90 3.0 6.0 0.00 0.00 0.16 92 1000.8
20191116151801 46 0 1.0 4.0 0.00 0.00 0.16 93 1000.9
20191116151255 46 337 2.0 4.0 0.00 0.00 0.16 92 1000.9
20191116150750 46 90 2.0 7.0 0.00 0.00 0.16 94 1001.0
20191116150245 46 90 2.0 5.0 0.00 0.00 0.16 92 1001.1
20191116145739 46 135 3.0 5.0 0.00 0.00 0.16 94 1001.2
20191116144724 46 90 4.0 5.0 0.00 0.00 0.15 92 1001.1
20191116144219 46 135 1.0 5.0 0.00 0.00 0.14 93 1001.2
20191116143714 46 135 0.0 4.0 0.00 0.00 0.14 95 1001.3
20191116143208 46 225 4.0 9.0 0.00 0.00 0.13 92 1001.3
20191116142704 46 90 2.0 3.0 0.00 0.00 0.12 91 1001.3
20191116141650 46 337 1.0 10.0 0.00 0.00 0.11 92 1001.1
20191116141145 46 90 2.0 5.0 0.00 0.00 0.09 92 1001.1
20191116140640 46 90 1.0 5.0 0.00 0.00 0.09 93 1001.3
20191116140135 46 0 1.0 7.0 0.00 0.00 0.08 92 1001.3
20191116135629 46 270 5.0 5.0 0.00 0.00 0.08 90 1001.4
20191116135124 46 90 1.0 3.0 0.00 0.00 0.07 90 1001.5
20191116134619 46 337 2.0 7.0 0.00 0.00 0.06 89 1001.5
20191116134113 46 117 5.0 11.0 0.00 0.00 0.05 89 1001.6
20191116133609 47 117 3.0 11.0 0.00 0.00 0.04 91 1001.6
20191116133103 47 310 2.0 12.0 0.00 0.00 0.04 89 1001.7
20191116132558 47 346 0.0 4.0 0.00 0.00 0.03 90 1001.7
20191116132053 47 90 1.0 12.0 0.00 0.00 0.03 90 1001.6
20191116131547 47 108 6.0 14.0 0.00 0.00 0.03 90 1001.7
20191116131043 47 99 3.0 8.0 0.00 0.00 0.03 90 1001.8
20191116130537 47 288 3.0 4.0 0.00 0.00 0.03 89 1001.7
20191116130032 47 126 4.0 10.0 0.00 0.00 0.03 89 1002.1
20191116125527 46 90 18.0 18.0 0.00 0.00 0.03 90 1002.1
20191116125022 46 348 1.0 9.0 0.00 0.00 0.03 90 1002.1
20191116124517 46 342 2.0 15.0 0.00 0.00 0.03 89 1002.0
20191116124011 46 337 6.0 7.0 0.00 0.00 0.03 90 1002.2
20191116123506 46 135 5.0 12.0 0.00 0.00 0.03 86 1002.4
20191116123001 46 342 6.0 7.0 0.00 0.00 0.03 89 1002.5
20191116122455 46 90 5.0 10.0 0.00 0.00 0.03 90 1002.6
20191116121951 46 292 5.0 12.0 0.00 0.00 0.03 89 1002.7
20191116121445 46 99 4.0 9.0 0.00 0.00 0.03 89 1002.8
20191116120940 46 270 13.0 13.0 0.00 0.00 0.03 90 1002.7
20191116120435 46 90 6.0 9.0 0.00 0.00 0.03 89 1003.2
20191116115930 46 135 8.0 13.0 0.00 0.00 0.03 88 1003.2
20191116115425 46 121 6.0 10.0 0.00 0.00 0.03 94 1003.3
20191116114919 46 135 4.0 6.0 0.00 0.00 0.03 89 1003.3
20191116114414 46 337 8.0 12.0 0.00 0.00 0.03 89 1003.3
20191116113909 46 346 4.0 10.0 0.00 0.00 0.03 88 1003.5
20191116113403 46 117 5.0 13.0 0.00 0.00 0.03 88 1003.7
20191116112859 46 135 2.0 9.0 0.00 0.00 0.03 90 1003.9
20191116112353 46 90 9.0 15.0 0.00 0.00 0.03 89 1003.9
20191116111848 46 117 7.0 19.0 0.00 0.00 0.03 89 1003.9
20191116111343 46 90 7.0 13.0 0.00 0.00 0.03 89 1004.0
20191116110837 46 99 5.0 17.0 0.00 0.00 0.03 89 1004.0
20191116110333 46 135 4.0 13.0 0.00 0.00 0.03 89 1004.1
20191116105827 46 99 17.0 19.0 0.00 0.00 0.03 90 1004.0
20191116105322 46 135 7.0 11.0 0.00 0.00 0.03 94 1004.2
20191116104817 46 126 19.0 19.0 0.00 0.00 0.03 90 1004.2
20191116104311 46 234 10.0 16.0 0.00 0.00 0.02 91 1004.2
20191116103807 46 90 8.0 12.0 0.00 0.00 0.02 91 1004.3
20191116103301 46 90 0.0 7.0 0.00 0.00 0.02 91 1004.5
20191116102756 46 99 4.0 12.0 0.00 0.00 0.02 90 1004.7
20191116102251 46 225 6.0 9.0 0.00 0.00 0.02 90 1004.7
20191116101746 46 90 1.0 7.0 0.00 0.00 0.02 90 1004.9
20191116101241 46 337 6.0 11.0 0.00 0.00 0.02 91 1004.9
20191116100735 46 225 4.0 11.0 0.00 0.00 0.02 92 1005.1
20191116100230 46 90 6.0 10.0 0.00 0.00 0.02 91 1005.3
20191116095725 46 270 3.0 11.0 0.00 0.00 0.02 91 1005.4
20191116095220 46 90 3.0 7.0 0.00 0.00 0.02 91 1005.4
20191116094715 45 135 2.0 6.0 0.00 0.00 0.02 89 1005.4
20191116094209 46 90 3.0 12.0 0.00 0.00 0.02 92 1005.6
20191116093704 45 94 11.0 12.0 0.00 0.00 0.02 91 1005.6
20191116093159 45 337 5.0 6.0 0.00 0.00 0.02 89 1005.8
20191116092654 45 337 4.0 8.0 0.00 0.00 0.02 89 1005.8
20191116092149 45 337 5.0 7.0 0.00 0.00 0.02 90 1005.7
20191116091643 45 337 2.0 5.0 0.00 0.00 0.02 92 1005.8
20191116091138 46 126 3.0 7.0 0.00 0.00 0.02 90 1005.8
20191116090633 46 337 3.0 8.0 0.00 0.00 0.02 90 1005.9
20191116090128 46 90 6.0 10.0 0.00 0.00 0.02 91 1005.9
20191116085623 46 225 2.0 7.0 0.00 0.00 0.02 91 1005.9
20191116085117 46 225 5.0 9.0 0.00 0.00 0.02 89 1005.8
20191116084612 46 225 1.0 6.0 0.00 0.00 0.02 89 1006.1
20191116084107 46 45 4.0 16.0 0.00 0.00 0.02 89 1006.2
20191116083602 46 126 5.0 9.0 0.00 0.00 0.02 89 1006.3
20191116083057 46 225 3.0 10.0 0.00 0.00 0.02 91 1006.4
20191116082551 46 72 7.0 7.0 0.00 0.00 0.02 91 1006.6
20191116082046 46 90 3.0 10.0 0.00 0.00 0.02 89 1006.6
20191116081541 46 99 5.0 6.0 0.00 0.00 0.02 89 1006.7
20191116081036 46 337 2.0 8.0 0.00 0.00 0.02 90 1006.5
20191116080531 46 101 7.0 7.0 0.00 0.00 0.02 89 1006.5
20191116080025 46 0 2.0 5.0 0.00 0.00 0.02 89 1006.5
20191116075520 46 90 1.0 3.0 0.00 0.00 0.02 90 1006.8
20191116075015 46 90 5.0 8.0 0.00 0.00 0.02 89 1006.8
20191116074510 46 90 4.0 5.0 0.00 0.00 0.02 90 1006.7
20191116074005 45 90 1.0 6.0 0.00 0.00 0.02 90 1006.7
20191116073459 45 337 3.0 7.0 0.00 0.00 0.02 90 1006.9
20191116072954 45 270 2.0 9.0 0.00 0.00 0.02 88 1006.9
20191116072449 45 337 4.0 4.0 0.00 0.00 0.02 90 1006.9
20191116071944 45 99 5.0 8.0 0.00 0.00 0.02 90 1006.9
20191116071439 45 320 6.0 7.0 0.00 0.00 0.02 90 1006.9
20191116070933 45 225 5.0 7.0 0.00 0.00 0.02 88 1007.0
20191116070428 46 90 2.0 9.0 0.00 0.00 0.02 90 1007.1
20191116065923 46 225 4.0 9.0 0.00 0.00 0.02 91 1007.1
20191116065418 46 337 4.0 10.0 0.00 0.00 0.02 89 1007.1
20191116064913 46 90 3.0 6.0 0.00 0.00 0.02 88 1007.1
20191116064407 46 225 2.0 6.0 0.00 0.00 0.02 87 1007.2
20191116063902 46 90 1.0 4.0 0.00 0.00 0.01 89 1007.1
20191116063357 46 153 3.0 7.0 0.00 0.00 0.01 87 1007.1
20191116062852 46 90 2.0 8.0 0.00 0.00 0.01 87 1007.2
20191116062347 46 135 7.0 9.0 0.00 0.00 0.01 88 1007.2
20191116061841 46 225 6.0 6.0 0.00 0.00 0.01 83 1007.2
20191116061336 46 126 4.0 5.0 0.00 0.00 0.01 88 1007.3
20191116060831 46 135 6.0 7.0 0.00 0.00 0.01 88 1007.3
20191116060326 46 135 7.0 10.0 0.00 0.00 0.01 87 1007.1
20191116055821 46 121 4.0 7.0 0.00 0.00 0.01 87 1007.0
20191116055315 46 135 1.0 9.0 0.00 0.00 0.01 87 1007.2
20191116054810 46 90 7.0 7.0 0.00 0.00 0.01 90 1007.2
20191116054305 46 90 3.0 6.0 0.00 0.00 0.01 89 1007.2
20191116053800 46 225 6.0 6.0 0.00 0.00 0.01 90 1007.3
20191116053255 46 99 6.0 10.0 0.00 0.00 0.01 87 1007.3
20191116052749 46 135 2.0 8.0 0.00 0.00 0.01 89 1007.4
20191116052244 46 90 2.0 5.0 0.00 0.00 0.01 89 1007.4
20191116051739 46 303 5.0 7.0 0.00 0.00 0.01 89 1007.4
20191116051234 45 82 3.0 7.0 0.00 0.00 0.01 88 1007.5
20191116050729 45 85 4.0 8.0 0.00 0.00 0.01 90 1007.4
20191116050223 45 346 3.0 3.0 0.00 0.00 0.01 88 1007.6
20191116045718 45 90 3.0 3.0 0.00 0.00 0.01 87 1007.7
20191116045213 45 342 4.0 5.0 0.00 0.00 0.01 88 1007.3
20191116044708 45 342 7.0 9.0 0.00 0.00 0.01 87 1007.4
20191116044203 45 337 4.0 14.0 0.00 0.00 0.01 89 1007.6
20191116043657 45 90 7.0 10.0 0.00 0.00 0.01 89 1007.6
20191116043152 45 337 7.0 10.0 0.00 0.00 0.01 87 1007.6
20191116042647 45 337 5.0 8.0 0.00 0.00 0.01 87 1007.8
20191116042142 45 337 6.0 10.0 0.00 0.00 0.01 90 1007.9
20191116041637 45 337 5.0 8.0 0.00 0.00 0.01 87 1007.9
20191116041131 45 337 8.0 11.0 0.00 0.00 0.01 89 1008.0
20191116040626 45 337 5.0 10.0 0.00 0.00 0.01 87 1008.0
20191116040121 45 337 7.0 8.0 0.00 0.00 0.01 88 1008.1
20191116035616 45 90 12.0 12.0 0.00 0.00 0.01 89 1008.3
20191116035111 45 90 2.0 9.0 0.00 0.00 0.01 90 1008.3
20191116034605 45 90 8.0 9.0 0.00 0.00 0.01 88 1008.4
20191116034100 45 90 4.0 9.0 0.00 0.00 0.01 89 1008.4
20191116033555 44 337 8.0 12.0 0.00 0.00 0.01 89 1008.4
20191116033050 44 315 5.0 12.0 0.00 0.00 0.01 87 1008.5
20191116032545 44 337 7.0 12.0 0.00 0.00 0.01 89 1008.5
20191116032039 44 337 5.0 11.0 0.00 0.00 0.01 90 1008.5
20191116031534 44 126 4.0 8.0 0.00 0.00 0.01 87 1008.6